This is the latest recevied weather packets stored in our database for station/object WA4IKQ. If no packets are shown the sender has not sent any weather packets the latest 10 day(s).
| Time | Temp. | Humidity | Pressure | Rain* | Wind** | Luminosity | Snow |
|---|---|---|---|---|---|---|---|
| 1777887591 | 18.33° C | 82% | 1015.6 hPa | 0 mm | 0.45 m/s, 297° | - | - |
| 1777887291 | 18.33° C | 82% | 1015.5 hPa | 0 mm | 0.45 m/s, 329° | - | - |
| 1777887126 | 18.33° C | 82% | 1015.6 hPa | 0 mm | 1.34 m/s, 336° | - | - |
| 1777886991 | 18.33° C | 82% | 1015.6 hPa | 0 mm | 0.45 m/s, 295° | - | - |
| 1777886691 | 18.33° C | 82% | 1015.6 hPa | 0 mm | 1.34 m/s, 336° | - | - |
| 1777886508 | 18.89° C | 82% | 1015.6 hPa | 0 mm | 0.45 m/s, 288° | - | - |
| 1777886389 | 18.89° C | 82% | 1015.6 hPa | 0 mm | 1.34 m/s, 335° | - | - |
| 1777886090 | 18.89° C | 82% | 1015.6 hPa | 0 mm | 0.45 m/s, 288° | - | - |
| 1777885789 | 18.89° C | 82% | 1015.6 hPa | 0 mm | 0.89 m/s, 262° | - | - |
| 1777885297 | 18.89° C | 80% | 1015.4 hPa | 0 mm | 1.34 m/s, 280° | - | - |
| 1777884997 | 18.89° C | 80% | 1015.3 hPa | 0 mm | 0.45 m/s, 350° | - | - |
| 1777884893 | 18.89° C | 80% | 1015.4 hPa | 0 mm | 1.34 m/s, 280° | - | - |
| 1777884592 | 18.89° C | 80% | 1015.3 hPa | 0 mm | 0.45 m/s, 350° | - | - |
| 1777884449 | 18.89° C | 81% | 1015.5 hPa | 0 mm | 1.34 m/s, 328° | - | - |
| 1777884150 | 18.89° C | 81% | 1015.5 hPa | 0 mm | 0 m/s | - | - |
| 1777883988 | 18.89° C | 81% | 1015.5 hPa | 0 mm | 1.34 m/s, 328° | - | - |
| 1777883688 | 18.89° C | 81% | 1015.5 hPa | 0 mm | 0 m/s | - | - |
| 1777883387 | 18.89° C | 81% | 1015.6 hPa | 0 mm | 0.45 m/s, 336° | - | - |
| 1777883227 | 18.89° C | 82% | 1015.5 hPa | 0 mm | 0.45 m/s, 329° | - | - |
| 1777883092 | 18.89° C | 81% | 1015.6 hPa | 0 mm | 0.45 m/s, 8° | - | - |
| 1777882792 | 18.89° C | 82% | 1015.5 hPa | 0 mm | 0.45 m/s, 329° | - | - |
| 1777882724 | 18.33° C | 82% | 1015.5 hPa | 0 mm | 0.89 m/s, 3° | - | - |
| 1777882490 | 18.33° C | 82% | 1015.5 hPa | 0 mm | 0.89 m/s, 3° | - | - |
| 1777882419 | 18.89° C | 82% | 1015.5 hPa | 0 mm | 0.45 m/s, 284° | - | - |
| 1777882187 | 18.89° C | 82% | 1015.5 hPa | 0 mm | 0.45 m/s, 284° | - | - |
* Rain latest hour (hover to see other rain measurements)
** Current wind speed in m/s (hover to see current wind gust speed)